Regional Weather Roundup
Issued by NWS Newport/Morehead, NC

Current Version | Previous Version | Text Only | Print | Product List | Glossary Off
Versions: 1 2 3 4 5 6 7 8 9 10 11 12 13 14 15 16 17 18 19 20 21 22 23 24 25 26 27 28 29 30 31 32 33 34 35 36 37 38 39 40 41 42 43 44 45 46 47 48 49 50
000 ASUS42 KMHX 291125 RWRMHX WEATHER ROUNDUP FOR EASTERN NORTH CAROLINA NATIONAL WEATHER SERVICE NEWPORT/MOREHEAD CITY NC 700 AM EDT WED JUL 29 2015 NOTE: "FAIR" INDICATES FEW OR NO CLOUDS BELOW 12,000 FEET WITH NO SIGNIFICANT WEATHER AND/OR OBSTRUCTIONS TO VISIBILITY NCZ015>017-031-032-045>047-102-103-291200- NORTH COAST CITY SKY/WX TMP DP RH WIND PRES REMARKS EDENTON CLEAR 74 71 88 CALM 30.01S ELIZABETH CITY CLEAR 72 71 97 CALM 30.01R KITTY HAWK SUNNY 75 71 86 CALM 30.01R MANTEO CLEAR 77 71 81 SE3 30.02R $$ NCZ045>047-081-094-103-104-291200- CENTRAL COAST CITY SKY/WX TMP DP RH WIND PRES REMARKS FRISCO CLEAR 79 69 71 E7 30.00R SWANQUARTER N/A 75 N/A N/A NE2 29.97S $$ NCZ095-097-098-100-101-291200- SOUTHERN COAST CITY SKY/WX TMP DP RH WIND PRES REMARKS BEAUFORT CLEAR 79 72 79 E5 29.98R CEDAR ISLAND N/A 81 N/A N/A E14 30.03S JACKSONVILLE CLEAR 75 70 84 N3 29.99R PINEY ISLAND SUNNY N/A N/A N/A E9 29.99R WILMINGTON CLEAR 73 70 90 N3 29.98R $$ NCZ011>013-027>030-043-044-078>080-089-090>093-098-291200- COASTAL PLAIN CITY SKY/WX TMP DP RH WIND PRES REMARKS AHOSKIE PTCLDY 68 67 96 CALM 30.01S CLINTON CLEAR 74 72 95 CALM 30.01S ELIZABETHTOWN CLEAR 71 71 100 CALM 30.00R GOLDSBORO MOCLDY 74 71 92 SW1 29.99R GREENVILLE CLEAR 73 72 94 CALM 30.02S FOG HAVELOCK CLEAR 75 70 84 CALM 30.00R KENANSVILLE CLEAR 71 70 96 CALM 30.01S KINSTON CLEAR 72 70 94 CALM 30.01S NEW BERN CLEAR 73 70 90 CALM 30.01R RICHLANDS CLEAR 72 66 83 N3 30.00S ROCKY MOUNT CLOUDY 73 72 96 CALM 30.01R WASHINGTON CLEAR 72 70 95 CALM 30.01S WHITEVILLE CLEAR 71 70 96 CALM 29.98S $$ AMZ130-135-150-152-154-156-158-170-250-252-270-ANZ085-086-088-633-658-670-291200- MARINE OBSERVATIONS STATION/POSITION TIME TEMP WIND PRES WAVE SWELL AIR SEA DIR/SP/G HT/PER HT/PER (UTC) (F) (DEG/KT/KT) (MB) (FT/S) (FT/S) CHESAPEAKE LIGHT 1100 79 220/ 9/ 9 1016.9 64 E VA BEACH 1050 80 80 170/ 6/ 8 1016.2 2/10 2/10 DUCK 1100 77 65 150/ 6/ 6 1015.5 2 E DUCK 1011 78 N/A 2/11 OREGON INLET 1100 78 82 130/ 3/ 4 1016.2 13E OREGON INLT 1100 80 N/A 3/ 9 2/11 HATTERAS CG 1100 81 82 110/ 6/ 9 1015.6 DIAMOND BUOY NOT AVBL CAPE LOOKOUT 1100 81 90/ 14/ 14 1014.9 BEAUFORT LAB 1100 80 81 90/ 5/ 6 1014.6 30 SE NEW RVR IN NOT AVBL 27 SE WRIGHTSVLE 1100 78 82 80/ 12/ 14 N/A 5 SE WRIGHTSVLE 1008 81 81 90/ 10/ 14 1014.6 225 S CAPE HAT 1050 80 81 220/ 25/ 31 1013.2 6/ 6 2/11 41 SE CHARLESTON 1050 83 84 50/ 12/ 14 1013.2 3/ 6 2/ 6 $$

USA.gov is the U.S. government's official web portal to all federal, state and local government web resources and services.